| time (UTC) | temp F | wind direction | speed MPH | gust MPH | rain 1hr in | rain 24hr in | rain mn in | humidity % | barometer mb |
| 20260503013054 | 61 | 338 | 9.0 | 16.0 | 0.00 | 0.00 | 0.00 | 34 | 1000.8 |
| 20260503012551 | 61 | 360 | 10.0 | 16.0 | 0.00 | 0.00 | 0.00 | 34 | 1000.8 |
| 20260503012051 | 62 | 360 | 11.0 | 19.0 | 0.00 | 0.00 | 0.00 | 33 | 1000.7 |
| 20260503011608 | 62 | 340 | 14.0 | 22.0 | 0.00 | 0.00 | 0.00 | 33 | 1000.8 |
| 20260503011050 | 62 | 333 | 17.0 | 22.0 | 0.00 | 0.00 | 0.00 | 32 | 1000.6 |
| 20260503010548 | 63 | 5 | 17.0 | 22.0 | 0.00 | 0.00 | 0.00 | 31 | 1000.6 |
| 20260503010047 | 63 | 343 | 13.0 | 24.0 | 0.00 | 0.00 | 0.00 | 31 | 1000.5 |
| 20260503005546 | 64 | 342 | 17.0 | 24.0 | 0.00 | 0.00 | 0.00 | 31 | 1000.5 |
| 20260503005046 | 64 | 344 | 13.0 | 20.0 | 0.00 | 0.00 | 0.00 | 31 | 1000.7 |
| 20260503004546 | 64 | 333 | 14.0 | 23.0 | 0.00 | 0.00 | 0.00 | 31 | 1000.6 |
| 20260503004044 | 64 | 321 | 16.0 | 23.0 | 0.00 | 0.00 | 0.00 | 31 | 1000.6 |
| 20260503003646 | 64 | 350 | 17.0 | 24.0 | 0.00 | 0.00 | 0.00 | 30 | 1000.5 |
| 20260503003044 | 64 | 338 | 17.0 | 24.0 | 0.00 | 0.00 | 0.00 | 31 | 1000.6 |
| 20260503002544 | 65 | 332 | 18.0 | 24.0 | 0.00 | 0.00 | 0.00 | 30 | 1000.5 |
| 20260503002043 | 65 | 329 | 17.0 | 24.0 | 0.00 | 0.00 | 0.00 | 30 | 1000.5 |
| 20260503001541 | 65 | 340 | 16.0 | 25.0 | 0.00 | 0.00 | 0.00 | 30 | 1000.4 |
| 20260503001041 | 65 | 342 | 18.0 | 25.0 | 0.00 | 0.00 | 0.00 | 30 | 1000.4 |
| 20260503000540 | 66 | 336 | 15.0 | 23.0 | 0.00 | 0.00 | 0.00 | 30 | 1000.5 |
| 20260503000040 | 66 | 325 | 16.0 | 25.0 | 0.00 | 0.00 | 0.00 | 30 | 1000.5 |
| 20260502235539 | 66 | 329 | 14.0 | 25.0 | 0.00 | 0.00 | 0.00 | 30 | 1000.4 |
| 20260502235038 | 66 | 348 | 11.0 | 25.0 | 0.00 | 0.00 | 0.00 | 30 | 1000.3 |
| 20260502234550 | 66 | 338 | 16.0 | 25.0 | 0.00 | 0.00 | 0.00 | 30 | 1000.4 |
| 20260502234038 | 67 | 322 | 20.0 | 24.0 | 0.00 | 0.00 | 0.00 | 29 | 1000.3 |
| 20260502233637 | 67 | 321 | 16.0 | 22.0 | 0.00 | 0.00 | 0.00 | 29 | 1000.3 |
| 20260502233036 | 67 | 314 | 16.0 | 22.0 | 0.00 | 0.00 | 0.00 | 29 | 1000.3 |
| 20260502232536 | 68 | 333 | 14.0 | 21.0 | 0.00 | 0.00 | 0.00 | 30 | 1000.3 |
| 20260502232037 | 67 | 300 | 14.0 | 23.0 | 0.00 | 0.00 | 0.00 | 29 | 1000.2 |
| 20260502231536 | 67 | 301 | 17.0 | 23.0 | 0.00 | 0.00 | 0.00 | 29 | 1000.2 |
| 20260502231035 | 67 | 308 | 18.0 | 25.0 | 0.00 | 0.00 | 0.00 | 29 | 1000.4 |
| 20260502230535 | 68 | 355 | 19.0 | 26.0 | 0.00 | 0.00 | 0.00 | 28 | 1000.3 |
| 20260502230034 | 69 | 327 | 17.0 | 27.0 | 0.00 | 0.00 | 0.00 | 28 | 1000.2 |
| 20260502225537 | 69 | 310 | 15.0 | 27.0 | 0.00 | 0.00 | 0.00 | 27 | 1000.2 |
| 20260502225033 | 68 | 325 | 12.0 | 25.0 | 0.00 | 0.00 | 0.00 | 29 | 1000.2 |
| 20260502224532 | 69 | 327 | 17.0 | 27.0 | 0.00 | 0.00 | 0.00 | 28 | 1000.2 |
| 20260502224033 | 69 | 325 | 21.0 | 27.0 | 0.00 | 0.00 | 0.00 | 28 | 1000.3 |
| 20260502223532 | 69 | 305 | 15.0 | 26.0 | 0.00 | 0.00 | 0.00 | 29 | 1000.2 |
| 20260502223031 | 69 | 304 | 17.0 | 26.0 | 0.00 | 0.00 | 0.00 | 29 | 1000.2 |
| 20260502222531 | 68 | 325 | 18.0 | 26.0 | 0.00 | 0.00 | 0.00 | 30 | 1000.3 |
| 20260502222031 | 68 | 347 | 18.0 | 25.0 | 0.00 | 0.00 | 0.00 | 30 | 1000.3 |
| 20260502221530 | 69 | 336 | 19.0 | 25.0 | 0.00 | 0.00 | 0.00 | 30 | 1000.4 |
| 20260502221030 | 69 | 348 | 12.0 | 24.0 | 0.00 | 0.00 | 0.00 | 32 | 1000.4 |
| 20260502220529 | 69 | 323 | 18.0 | 24.0 | 0.00 | 0.00 | 0.00 | 30 | 1000.4 |
| 20260502220029 | 70 | 342 | 16.0 | 26.0 | 0.00 | 0.00 | 0.00 | 31 | 1000.4 |
| 20260502215529 | 69 | 326 | 17.0 | 27.0 | 0.00 | 0.00 | 0.00 | 31 | 1000.5 |
| 20260502215029 | 70 | 296 | 12.0 | 23.0 | 0.00 | 0.00 | 0.00 | 32 | 1000.6 |
| 20260502214529 | 68 | 315 | 17.0 | 23.0 | 0.00 | 0.00 | 0.00 | 32 | 1000.5 |
| 20260502214030 | 68 | 321 | 17.0 | 24.0 | 0.00 | 0.00 | 0.00 | 31 | 1000.6 |
| 20260502213527 | 68 | 301 | 17.0 | 31.0 | 0.00 | 0.00 | 0.00 | 32 | 1000.6 |
| 20260502213038 | 68 | 317 | 19.0 | 31.0 | 0.00 | 0.00 | 0.00 | 31 | 1000.5 |
| 20260502212529 | 69 | 313 | 24.0 | 31.0 | 0.00 | 0.00 | 0.00 | 30 | 1000.5 |
| 20260502212028 | 69 | 346 | 15.0 | 23.0 | 0.00 | 0.00 | 0.00 | 32 | 1000.6 |
| 20260502211528 | 68 | 291 | 12.0 | 26.0 | 0.00 | 0.00 | 0.00 | 32 | 1000.7 |
| 20260502211026 | 68 | 323 | 15.0 | 28.0 | 0.00 | 0.00 | 0.00 | 32 | 1000.6 |
| 20260502210526 | 68 | 340 | 18.0 | 28.0 | 0.00 | 0.00 | 0.00 | 33 | 1000.6 |
| 20260502210026 | 69 | 306 | 15.0 | 27.0 | 0.00 | 0.00 | 0.00 | 32 | 1000.7 |
| 20260502205526 | 70 | 335 | 20.0 | 27.0 | 0.00 | 0.00 | 0.00 | 32 | 1000.7 |
| 20260502205025 | 69 | 360 | 12.0 | 23.0 | 0.00 | 0.00 | 0.00 | 33 | 1000.6 |
| 20260502204524 | 69 | 320 | 12.0 | 24.0 | 0.00 | 0.00 | 0.00 | 34 | 1000.6 |
| 20260502204026 | 68 | 346 | 18.0 | 28.0 | 0.00 | 0.00 | 0.00 | 34 | 1000.8 |
| 20260502203621 | 67 | 307 | 16.0 | 24.0 | 0.00 | 0.00 | 0.00 | 34 | 1000.8 |
| 20260502203020 | 67 | 290 | 17.0 | 24.0 | 0.00 | 0.00 | 0.00 | 33 | 1000.8 |
| 20260502202519 | 67 | 360 | 13.0 | 23.0 | 0.00 | 0.00 | 0.00 | 33 | 1000.7 |
| 20260502202019 | 68 | 329 | 17.0 | 23.0 | 0.00 | 0.00 | 0.00 | 32 | 1001.1 |
| 20260502201532 | 69 | 323 | 14.0 | 23.0 | 0.00 | 0.00 | 0.00 | 34 | 1000.9 |
| 20260502201023 | 69 | 340 | 18.0 | 24.0 | 0.00 | 0.00 | 0.00 | 33 | 1000.9 |
| 20260502200518 | 69 | 327 | 13.0 | 26.0 | 0.00 | 0.00 | 0.00 | 33 | 1000.7 |
| 20260502200018 | 69 | 316 | 19.0 | 26.0 | 0.00 | 0.00 | 0.00 | 32 | 1000.8 |
| 20260502195518 | 68 | 326 | 18.0 | 24.0 | 0.00 | 0.00 | 0.00 | 32 | 1000.8 |
| 20260502195017 | 68 | 319 | 15.0 | 28.0 | 0.00 | 0.00 | 0.00 | 33 | 1001.0 |
| 20260502194517 | 69 | 316 | 19.0 | 28.0 | 0.00 | 0.00 | 0.00 | 32 | 1001.0 |
| 20260502194119 | 69 | 310 | 19.0 | 28.0 | 0.00 | 0.00 | 0.00 | 32 | 1000.9 |
| 20260502193617 | 68 | 340 | 19.0 | 25.0 | 0.00 | 0.00 | 0.00 | 35 | 1000.9 |
| 20260502193018 | 68 | 319 | 17.0 | 26.0 | 0.00 | 0.00 | 0.00 | 35 | 1000.7 |
| 20260502192518 | 67 | 323 | 16.0 | 27.0 | 0.00 | 0.00 | 0.00 | 34 | 1000.8 |
| 20260502192018 | 68 | 355 | 19.0 | 27.0 | 0.00 | 0.00 | 0.00 | 33 | 1000.8 |
| 20260502191516 | 68 | 333 | 16.0 | 26.0 | 0.00 | 0.00 | 0.00 | 32 | 1000.8 |
| 20260502191016 | 68 | 315 | 19.0 | 26.0 | 0.00 | 0.00 | 0.00 | 33 | 1000.8 |
| 20260502190515 | 68 | 349 | 14.0 | 26.0 | 0.00 | 0.00 | 0.00 | 34 | 1000.8 |
| 20260502190016 | 68 | 329 | 17.0 | 26.0 | 0.00 | 0.00 | 0.00 | 34 | 1001.0 |
| 20260502185516 | 68 | 312 | 20.0 | 26.0 | 0.00 | 0.00 | 0.00 | 33 | 1000.8 |
| 20260502185013 | 68 | 331 | 19.0 | 25.0 | 0.00 | 0.00 | 0.00 | 33 | 1001.0 |
| 20260502184513 | 66 | 309 | 15.0 | 26.0 | 0.00 | 0.00 | 0.00 | 35 | 1001.0 |
| 20260502184114 | 66 | 311 | 17.0 | 26.0 | 0.00 | 0.00 | 0.00 | 35 | 1000.9 |
| 20260502183612 | 66 | 345 | 17.0 | 26.0 | 0.00 | 0.00 | 0.00 | 35 | 1001.0 |
| 20260502183012 | 66 | 342 | 15.0 | 26.0 | 0.00 | 0.00 | 0.00 | 35 | 1001.0 |
| 20260502182511 | 65 | 355 | 13.0 | 26.0 | 0.00 | 0.00 | 0.00 | 35 | 1001.1 |
| 20260502182011 | 66 | 347 | 16.0 | 24.0 | 0.00 | 0.00 | 0.00 | 34 | 1001.0 |
| 20260502181511 | 67 | 340 | 18.0 | 24.0 | 0.00 | 0.00 | 0.00 | 33 | 1001.1 |
| 20260502181111 | 67 | 355 | 18.0 | 24.0 | 0.00 | 0.00 | 0.00 | 33 | 1001.1 |
| 20260502180510 | 67 | 332 | 12.0 | 24.0 | 0.00 | 0.00 | 0.00 | 35 | 1001.0 |
| 20260502170514 | 67 | 334 | 18.0 | 25.0 | 0.00 | 0.00 | 0.00 | 35 | 1001.1 |
| 20260502164006 | 66 | 5 | 14.0 | 23.0 | 0.00 | 0.00 | 0.00 | 38 | 1000.8 |
| 20260502163606 | 66 | 331 | 16.0 | 24.0 | 0.00 | 0.00 | 0.00 | 38 | 1000.8 |
| 20260502163007 | 66 | 332 | 14.0 | 24.0 | 0.00 | 0.00 | 0.00 | 38 | 1000.8 |
| 20260502162508 | 66 | 344 | 17.0 | 24.0 | 0.00 | 0.00 | 0.00 | 37 | 1000.8 |
| 20260502162007 | 66 | 9 | 15.0 | 23.0 | 0.00 | 0.00 | 0.00 | 37 | 1000.8 |
| 20260502161506 | 66 | 355 | 13.0 | 22.0 | 0.00 | 0.00 | 0.00 | 37 | 1000.7 |
| 20260502161006 | 66 | 329 | 14.0 | 21.0 | 0.00 | 0.00 | 0.00 | 37 | 1000.7 |
| 20260502160510 | 67 | 346 | 13.0 | 20.0 | 0.00 | 0.00 | 0.00 | 36 | 1000.6 |
| 20260502152004 | 64 | 345 | 11.0 | 16.0 | 0.00 | 0.00 | 0.00 | 40 | 1000.7 |
| 20260502151505 | 63 | 346 | 13.0 | 19.0 | 0.00 | 0.00 | 0.00 | 40 | 1000.7 |
| 20260502151004 | 64 | 342 | 11.0 | 19.0 | 0.00 | 0.00 | 0.00 | 38 | 1000.7 |
| 20260502150504 | 64 | 350 | 11.0 | 15.0 | 0.00 | 0.00 | 0.00 | 40 | 1000.6 |
| 20260502130606 | 55 | 360 | 15.0 | 20.0 | 0.00 | 0.00 | 0.00 | 48 | 1000.3 |
| 20260502123557 | 49 | 360 | 9.0 | 12.0 | 0.00 | 0.00 | 0.00 | 52 | 1000.2 |
| 20260502122604 | 49 | 360 | 8.0 | 13.0 | 0.00 | 0.00 | 0.00 | 52 | 1000.2 |
| 20260502122058 | 49 | 360 | 10.0 | 14.0 | 0.00 | 0.00 | 0.00 | 52 | 1000.2 |
| 20260502121559 | 49 | 360 | 11.0 | 14.0 | 0.00 | 0.00 | 0.00 | 52 | 999.9 |
| 20260502121101 | 48 | 360 | 9.0 | 13.0 | 0.00 | 0.00 | 0.00 | 53 | 999.9 |
| 20260502120557 | 47 | 360 | 11.0 | 13.0 | 0.00 | 0.00 | 0.00 | 53 | 999.7 |
| 20260502115556 | 48 | 360 | 10.0 | 13.0 | 0.00 | 0.00 | 0.00 | 52 | 1000.0 |
| 20260502115056 | 47 | 360 | 10.0 | 12.0 | 0.00 | 0.00 | 0.00 | 52 | 1000.2 |
| 20260502114558 | 47 | 360 | 9.0 | 12.0 | 0.00 | 0.00 | 0.00 | 52 | 1000.3 |
| 20260502114057 | 48 | 360 | 9.0 | 12.0 | 0.00 | 0.00 | 0.00 | 51 | 1000.3 |
| 20260502113556 | 48 | 360 | 9.0 | 11.0 | 0.00 | 0.00 | 0.00 | 51 | 1000.3 |
| 20260502112555 | 47 | 360 | 9.0 | 11.0 | 0.00 | 0.00 | 0.00 | 52 | 1000.5 |
| 20260502112055 | 47 | 360 | 6.0 | 11.0 | 0.00 | 0.00 | 0.00 | 51 | 1000.5 |
| 20260502111601 | 47 | 360 | 5.0 | 11.0 | 0.00 | 0.00 | 0.00 | 51 | 1000.4 |
| 20260502111055 | 47 | 360 | 7.0 | 11.0 | 0.00 | 0.00 | 0.00 | 51 | 1000.3 |
| 20260502110557 | 45 | 360 | 8.0 | 11.0 | 0.00 | 0.00 | 0.00 | 53 | 1000.4 |
| 20260502110055 | 44 | 360 | 7.0 | 9.0 | 0.00 | 0.00 | 0.00 | 53 | 1000.5 |
| 20260502105555 | 45 | 360 | 7.0 | 14.0 | 0.00 | 0.00 | 0.00 | 52 | 1000.1 |
| 20260502105055 | 46 | 360 | 8.0 | 16.0 | 0.00 | 0.00 | 0.00 | 51 | 1000.1 |
| 20260502104607 | 46 | 360 | 12.0 | 16.0 | 0.00 | 0.00 | 0.00 | 51 | 1000.0 |
| 20260502104054 | 46 | 360 | 10.0 | 13.0 | 0.00 | 0.00 | 0.00 | 52 | 1000.1 |
| 20260502103554 | 46 | 360 | 11.0 | 14.0 | 0.00 | 0.00 | 0.00 | 52 | 1000.1 |
| 20260502102557 | 45 | 360 | 9.0 | 12.0 | 0.00 | 0.00 | 0.00 | 54 | 1000.0 |
| 20260502102053 | 44 | 360 | 10.0 | 12.0 | 0.00 | 0.00 | 0.00 | 55 | 1000.2 |
| 20260502101607 | 44 | 360 | 10.0 | 13.0 | 0.00 | 0.00 | 0.00 | 55 | 1000.1 |
| 20260502101052 | 44 | 360 | 10.0 | 13.0 | 0.00 | 0.00 | 0.00 | 54 | 1000.1 |
| 20260502100552 | 44 | 360 | 10.0 | 13.0 | 0.00 | 0.00 | 0.00 | 55 | 1000.1 |
| 20260502091047 | 46 | 360 | 11.0 | 16.0 | 0.00 | 0.00 | 0.00 | 52 | 1000.6 |
| 20260502090546 | 45 | 360 | 11.0 | 15.0 | 0.00 | 0.00 | 0.00 | 52 | 1000.5 |
| 20260502071533 | 48 | 360 | 10.0 | 14.0 | 0.00 | 0.00 | 0.00 | 44 | 1001.7 |
| 20260502071032 | 48 | 360 | 11.0 | 14.0 | 0.00 | 0.00 | 0.00 | 44 | 1001.7 |
| 20260502070532 | 48 | 360 | 10.0 | 13.0 | 0.00 | 0.00 | 0.00 | 44 | 1001.6 |
| 20260502070052 | 48 | 360 | 9.0 | 13.0 | 0.00 | 0.00 | 0.00 | 45 | 1001.7 |
| 20260502065531 | 47 | 360 | 10.0 | 13.0 | 0.00 | 0.00 | 0.00 | 45 | 1001.8 |
| 20260502065033 | 47 | 360 | 10.0 | 14.0 | 0.00 | 0.00 | 0.00 | 44 | 1001.7 |
| 20260502064530 | 47 | 360 | 11.0 | 14.0 | 0.00 | 0.00 | 0.00 | 44 | 1001.7 |
| 20260502064030 | 47 | 360 | 11.0 | 14.0 | 0.00 | 0.00 | 0.00 | 44 | 1001.7 |
| 20260502063529 | 47 | 360 | 11.0 | 14.0 | 0.00 | 0.00 | 0.00 | 43 | 1001.8 |
| 20260502062533 | 47 | 360 | 11.0 | 14.0 | 0.00 | 0.00 | 0.00 | 43 | 1002.0 |
| 20260502062028 | 47 | 360 | 10.0 | 13.0 | 0.00 | 0.00 | 0.00 | 43 | 1002.0 |
| 20260502061527 | 48 | 360 | 11.0 | 13.0 | 0.00 | 0.00 | 0.00 | 43 | 1002.0 |
| 20260502061027 | 48 | 360 | 11.0 | 14.0 | 0.00 | 0.00 | 0.00 | 42 | 1002.3 |
| 20260502060527 | 49 | 360 | 11.0 | 14.0 | 0.00 | 0.00 | 0.00 | 41 | 1002.1 |
| 20260502060036 | 49 | 360 | 11.0 | 14.0 | 0.00 | 0.00 | 0.00 | 41 | 1002.1 |
| 20260502055526 | 49 | 360 | 11.0 | 14.0 | 0.00 | 0.00 | 0.00 | 41 | 1002.3 |
| 20260502055026 | 49 | 360 | 11.0 | 14.0 | 0.00 | 0.00 | 0.00 | 40 | 1002.3 |
| 20260502054538 | 49 | 360 | 10.0 | 15.0 | 0.00 | 0.00 | 0.00 | 40 | 1002.3 |
| 20260502054025 | 49 | 360 | 11.0 | 15.0 | 0.00 | 0.00 | 0.00 | 40 | 1002.4 |
| 20260502053525 | 49 | 360 | 11.0 | 15.0 | 0.00 | 0.00 | 0.00 | 40 | 1002.5 |
| 20260502052526 | 49 | 360 | 11.0 | 15.0 | 0.00 | 0.00 | 0.00 | 40 | 1002.4 |
| 20260502052028 | 48 | 360 | 11.0 | 14.0 | 0.00 | 0.00 | 0.00 | 40 | 1002.4 |
| 20260502051522 | 47 | 360 | 9.0 | 12.0 | 0.00 | 0.00 | 0.00 | 41 | 1002.6 |
| 20260502051024 | 47 | 360 | 8.0 | 10.0 | 0.00 | 0.00 | 0.00 | 41 | 1002.7 |
| 20260502050522 | 48 | 360 | 7.0 | 10.0 | 0.00 | 0.00 | 0.00 | 40 | 1002.5 |
| 20260502050022 | 48 | 360 | 8.0 | 10.0 | 0.00 | 0.00 | 0.00 | 40 | 1002.8 |
| 20260502045522 | 48 | 360 | 8.0 | 10.0 | 0.00 | 0.00 | 0.00 | 39 | 1002.8 |
| 20260502045021 | 48 | 360 | 8.0 | 10.0 | 0.00 | 0.00 | 0.00 | 40 | 1002.7 |
| 20260502044521 | 47 | 360 | 7.0 | 8.0 | 0.00 | 0.00 | 0.00 | 40 | 1002.8 |
| 20260502044019 | 47 | 360 | 6.0 | 8.0 | 0.00 | 0.00 | 0.00 | 41 | 1003.0 |
| 20260502043518 | 47 | 360 | 6.0 | 9.0 | 0.00 | 0.00 | 0.00 | 40 | 1003.1 |
| 20260502042518 | 47 | 360 | 7.0 | 9.0 | 0.00 | 0.00 | 0.00 | 40 | 1003.2 |
| 20260502042017 | 47 | 360 | 7.0 | 9.0 | 0.00 | 0.00 | 0.00 | 39 | 1003.2 |
| 20260502041528 | 48 | 360 | 7.0 | 10.0 | 0.00 | 0.00 | 0.00 | 38 | 1003.3 |
| 20260502041014 | 49 | 360 | 8.0 | 10.0 | 0.00 | 0.00 | 0.00 | 38 | 1003.4 |
| 20260502040513 | 48 | 360 | 7.0 | 9.0 | 0.00 | 0.00 | 0.00 | 38 | 1003.3 |
| 20260502040028 | 49 | 360 | 6.0 | 8.0 | 0.00 | 0.00 | 0.00 | 38 | 1003.4 |
| 20260502035511 | 49 | 360 | 6.0 | 10.0 | 0.00 | 0.00 | 0.00 | 37 | 1003.4 |
| 20260502035011 | 50 | 360 | 7.0 | 10.0 | 0.00 | 0.00 | 0.00 | 36 | 1003.4 |
| 20260502034509 | 50 | 360 | 7.0 | 11.0 | 0.00 | 0.00 | 0.00 | 36 | 1003.4 |
| 20260502034009 | 51 | 360 | 8.0 | 11.0 | 0.00 | 0.00 | 0.00 | 35 | 1003.5 |
| 20260502033510 | 51 | 360 | 8.0 | 10.0 | 0.00 | 0.00 | 0.00 | 35 | 1003.4 |
| 20260502032506 | 51 | 360 | 8.0 | 10.0 | 0.00 | 0.00 | 0.00 | 35 | 1003.4 |
| 20260502032006 | 51 | 360 | 8.0 | 10.0 | 0.00 | 0.00 | 0.00 | 35 | 1003.5 |
| 20260502031506 | 51 | 360 | 8.0 | 10.0 | 0.00 | 0.00 | 0.00 | 35 | 1003.4 |
| 20260502031005 | 51 | 360 | 8.0 | 11.0 | 0.00 | 0.00 | 0.00 | 35 | 1003.6 |
| 20260502030504 | 51 | 360 | 8.0 | 11.0 | 0.00 | 0.00 | 0.00 | 34 | 1003.5 |
| 20260502030003 | 51 | 360 | 8.0 | 10.0 | 0.00 | 0.00 | 0.00 | 34 | 1003.5 |
| 20260502025501 | 52 | 360 | 7.0 | 10.0 | 0.00 | 0.00 | 0.00 | 34 | 1003.5 |
| 20260502025004 | 52 | 360 | 7.0 | 9.0 | 0.00 | 0.00 | 0.00 | 34 | 1003.8 |
| 20260502024501 | 52 | 360 | 7.0 | 9.0 | 0.00 | 0.00 | 0.00 | 34 | 1003.6 |
| 20260502024100 | 52 | 360 | 7.0 | 10.0 | 0.00 | 0.00 | 0.00 | 33 | 1003.5 |
| 20260502023558 | 53 | 360 | 7.0 | 9.0 | 0.00 | 0.00 | 0.00 | 33 | 1003.4 |
| 20260502022559 | 55 | 360 | 7.0 | 9.0 | 0.00 | 0.00 | 0.00 | 31 | 1003.5 |
| 20260502022056 | 56 | 360 | 6.0 | 10.0 | 0.00 | 0.00 | 0.00 | 30 | 1003.5 |
| 20260502021555 | 56 | 360 | 8.0 | 10.0 | 0.00 | 0.00 | 0.00 | 30 | 1003.4 |
| 20260502021055 | 56 | 360 | 7.0 | 10.0 | 0.00 | 0.00 | 0.00 | 30 | 1003.5 |
| 20260502020553 | 57 | 360 | 7.0 | 10.0 | 0.00 | 0.00 | 0.00 | 30 | 1003.5 |
| 20260502020052 | 57 | 360 | 8.0 | 10.0 | 0.00 | 0.00 | 0.00 | 30 | 1003.5 |
| 20260502015554 | 58 | 360 | 7.0 | 10.0 | 0.00 | 0.00 | 0.00 | 29 | 1003.5 |
| 20260502015049 | 58 | 200 | 8.0 | 10.0 | 0.00 | 0.00 | 0.00 | 29 | 1003.6 |
| 20260502014555 | 59 | 196 | 7.0 | 9.0 | 0.00 | 0.00 | 0.00 | 29 | 1003.5 |
| 20260502014046 | 60 | 194 | 7.0 | 10.0 | 0.00 | 0.00 | 0.00 | 28 | 1003.5 |
| 20260502013544 | 61 | 196 | 6.0 | 10.0 | 0.00 | 0.00 | 0.00 | 28 | 1003.5 |